period_start,C,m1,H,J0,J1,J2,J3,J4,J5,JA,JB,JC,JD,JJ,JK,JN,#
2017-10-10 00:03:17,0.03,0.41,0.00,19.28,22.76,25.94,14.10,46.07,1014.18,2050.03,3336.20,3013.01,3429.06,600.17,602.37,36.01,0000 0000 0000 0000 000000
2017-10-10 00:08:18,0.04,0.42,0.00,19.26,22.77,25.96,14.13,46.13,1014.02,2050.02,3335.66,3012.40,3428.47,600.05,602.20,36.07,0000 0000 0000 0000 000000
2017-10-10 00:13:20,0.01,0.42,0.00,19.23,22.79,26.02,14.10,46.08,1013.79,2050.01,3335.02,3012.01,3428.00,600.31,602.30,36.12,0000 0000 0000 0000 000000
2017-10-10 00:18:21,0.03,0.42,0.00,19.25,22.79,26.05,14.04,46.05,1013.75,2050.00,3334.51,3011.68,3427.42,600.00,601.81,36.17,0000 0000 0000 0000 000000
2017-10-10 00:23:22,0.01,0.42,0.00,19.23,22.80,26.07,14.14,46.02,1013.72,2050.00,3334.00,3011.03,3427.00,600.09,602.22,36.22,0000 0000 0000 0000 000000
2017-10-10 00:28:24,0.03,0.42,0.00,19.24,22.81,26.06,14.11,45.99,1013.70,2050.00,3333.38,3010.95,3426.43,599.95,601.92,36.27,0000 0000 0000 0000 000000
2017-10-10 00:33:25,0.02,0.42,0.00,19.23,22.82,26.08,14.16,46.09,1013.69,2050.00,3332.99,3010.24,3426.00,600.31,602.47,36.32,0000 0000 0000 0000 000000
2017-10-10 00:38:27,0.02,0.42,0.00,19.22,22.82,26.08,14.13,46.09,1013.69,2050.00,3332.48,3010.00,3425.56,600.01,601.94,36.37,0000 0000 0000 0000 000000
2017-10-10 00:43:28,0.02,0.42,0.00,19.23,22.82,26.09,14.05,45.98,1013.68,2050.00,3332.00,3009.57,3425.01,599.70,601.84,36.42,0000 0000 0000 0000 000000
2017-10-10 00:48:29,0.03,0.43,0.00,19.21,22.83,26.12,14.11,46.07,1013.69,2050.00,3331.42,3009.04,3424.65,599.88,601.83,36.47,0000 0000 0000 0000 000000
2017-10-10 00:53:30,0.00,0.43,0.00,19.25,22.84,26.08,14.10,46.02,1013.69,2050.00,3331.00,3008.92,3424.03,600.07,601.95,36.52,0000 0000 0000 0000 000000
2017-10-10 00:58:32,0.05,0.43,0.00,19.22,22.84,26.11,14.03,46.07,1013.69,2050.00,3330.24,3008.12,3423.62,599.75,601.68,36.57,0000 0000 0000 0000 000000
2017-10-10 01:03:33,0.01,0.43,0.00,19.21,22.84,26.07,14.09,46.22,1013.65,2049.99,3329.83,3007.98,3423.00,599.85,601.83,36.62,0000 0000 0000 0000 000000
2017-10-10 01:08:35,0.04,0.43,0.00,19.20,22.84,26.08,14.17,46.06,1013.46,2049.99,3329.05,3007.30,3422.29,600.50,602.39,36.67,0000 0000 0000 0000 000000
2017-10-10 01:13:36,0.00,0.43,0.00,19.22,22.84,26.10,14.06,46.01,1013.34,2049.99,3328.74,3007.00,3421.97,600.20,602.04,36.72,0000 0000 0000 0000 000000
2017-10-10 01:18:37,0.03,0.43,0.00,19.20,22.84,26.10,14.11,46.17,1013.36,2049.98,3328.03,3006.70,3421.26,600.40,602.13,36.77,0000 0000 0000 0000 000000
2017-10-10 01:23:39,0.02,0.44,0.00,19.18,22.84,26.10,14.15,46.17,1013.28,2049.98,3327.31,3006.02,3420.84,600.14,602.04,36.82,0000 0000 0000 0000 000000
2017-10-10 01:28:40,0.02,0.44,0.00,19.20,22.84,26.05,14.09,46.22,1013.25,2049.98,3326.99,3005.71,3420.06,600.39,602.12,36.87,0000 0000 0000 0000 000000
2017-10-10 01:33:41,0.03,0.44,0.00,19.23,22.84,26.07,14.03,46.09,1013.21,2049.99,3326.31,3005.03,3419.73,600.04,601.70,36.92,0000 0000 0000 0000 000000
2017-10-10 01:38:42,0.01,0.44,0.00,19.24,22.85,26.06,14.10,46.14,1013.20,2049.99,3325.94,3004.88,3419.05,599.93,601.57,36.97,0000 0000 0000 0000 000000
2017-10-10 01:43:43,0.04,0.44,0.00,19.22,22.85,26.10,14.03,46.10,1013.20,2049.99,3325.13,3004.14,3418.70,599.80,601.51,37.02,0000 0000 0000 0000 000000
2017-10-10 01:48:44,0.01,0.44,0.00,19.22,22.85,26.07,14.12,46.13,1013.20,2049.99,3324.74,3003.95,3418.02,600.42,602.17,37.07,0000 0000 0000 0000 000000
2017-10-10 01:53:46,0.05,0.45,0.00,19.21,22.86,26.08,14.11,45.99,1013.17,2049.99,3324.02,3003.16,3417.40,600.33,602.08,37.13,0000 0000 0000 0000 000000
2017-10-10 01:58:47,0.01,0.45,0.00,19.23,22.87,26.10,14.04,46.19,1013.15,2049.98,3323.35,3002.99,3416.99,599.65,601.43,37.18,0000 0000 0000 0000 000000
2017-10-10 02:03:48,0.03,0.45,0.00,19.20,22.87,26.10,14.01,46.25,1013.16,2049.99,3322.91,3002.33,3416.28,599.90,601.68,37.23,0000 0000 0000 0000 000000
2017-10-10 02:08:50,0.01,0.45,0.00,19.23,22.87,26.09,14.12,46.23,1013.19,2049.99,3322.08,3002.00,3415.97,600.09,601.78,37.28,0000 0000 0000 0000 000000
2017-10-10 02:13:51,0.04,0.45,0.00,19.19,22.87,26.12,14.00,46.05,1013.20,2049.98,3321.64,3001.46,3415.17,600.24,601.90,37.33,0000 0000 0000 0000 000000
2017-10-10 02:18:52,0.01,0.45,0.00,19.23,22.87,26.09,14.02,46.17,1013.20,2049.98,3321.01,3001.01,3414.92,600.07,601.82,37.38,0000 0000 0000 0000 000000
2017-10-10 02:23:54,0.04,0.45,0.00,19.21,22.87,26.08,14.11,46.19,1013.19,2049.98,3320.28,3000.73,3414.12,600.42,602.15,37.43,0000 0000 0000 0000 000000
2017-10-10 02:28:55,0.02,0.46,0.00,19.18,22.87,26.10,14.07,46.09,1013.20,2049.97,3319.85,3000.04,3413.84,600.18,601.97,37.48,0000 0000 0000 0000 000000
2017-10-10 02:33:56,0.02,0.46,0.00,19.21,22.87,26.11,14.13,46.33,1013.20,2049.98,3319.05,2999.94,3413.05,600.36,602.11,37.53,0000 0000 0000 0000 000000
2017-10-10 02:38:58,0.03,0.46,0.00,19.22,22.87,26.09,14.06,46.20,1013.19,2049.97,3318.68,2999.12,3412.91,599.74,601.48,37.58,0000 0000 0000 0000 000000
2017-10-10 02:43:59,0.02,0.46,0.00,19.24,22.86,26.08,14.06,46.20,1012.95,2049.96,3318.02,2998.97,3412.13,599.30,600.90,37.63,0000 0000 0000 0000 000000
2017-10-10 02:49:01,0.03,0.46,0.00,19.18,22.86,26.06,14.03,46.21,1012.77,2049.97,3317.49,2998.48,3411.95,599.65,601.20,37.68,0000 0000 0000 0000 000000
2017-10-10 02:54:02,0.02,0.46,0.00,19.21,22.85,26.08,14.04,46.20,1012.77,2049.98,3317.01,2998.03,3411.30,599.46,600.94,37.73,0000 0000 0000 0000 000000
2017-10-10 02:59:03,0.01,0.46,0.00,19.19,22.85,26.07,14.04,46.28,1012.89,2049.98,3316.39,2997.91,3410.97,599.49,601.15,37.78,0000 0000 0000 0000 000000
2017-10-10 03:04:05,0.03,0.47,0.00,19.21,22.84,26.09,14.06,46.28,1012.76,2049.98,3316.00,2997.29,3410.52,599.51,600.98,37.83,0000 0000 0000 0000 000000
2017-10-10 03:09:06,0.02,0.47,0.00,19.19,22.84,26.07,14.09,46.07,1012.71,2049.98,3315.43,2997.01,3410.02,600.03,601.49,37.88,0000 0000 0000 0000 000000
2017-10-10 03:14:07,0.01,0.47,0.00,19.17,22.84,26.06,14.05,46.17,1012.71,2049.98,3315.00,2996.93,3409.80,599.54,601.13,37.93,0000 0000 0000 0000 000000
2017-10-10 03:19:09,0.04,0.47,0.00,19.18,22.84,26.07,14.06,46.11,1012.65,2049.98,3314.50,2996.23,3409.09,599.94,601.42,37.98,0000 0000 0000 0000 000000
2017-10-10 03:24:10,0.00,0.47,0.00,19.15,22.84,26.05,14.16,46.21,1012.43,2049.99,3314.01,2996.01,3409.00,600.22,601.62,38.03,0000 0000 0000 0000 000000
2017-10-10 03:29:11,0.03,0.47,0.00,19.18,22.84,26.06,14.15,46.19,1012.38,2049.98,3313.46,2995.88,3408.41,600.17,601.36,38.08,0000 0000 0000 0000 000000
2017-10-10 03:34:12,0.02,0.47,0.00,19.14,22.84,26.03,14.06,46.17,1012.38,2049.99,3313.01,2995.18,3408.00,599.98,601.49,38.14,0000 0000 0000 0000 000000
2017-10-10 03:39:13,0.01,0.47,0.00,19.16,22.84,26.03,14.04,46.24,1012.43,2049.97,3312.74,2995.00,3407.93,599.87,601.35,38.19,0000 0000 0000 0000 000000
2017-10-10 03:44:14,0.02,0.47,0.00,19.13,22.82,26.05,14.04,46.18,1012.43,2049.98,3312.05,2994.98,3407.25,599.95,601.40,38.24,0000 0000 0000 0000 000000
2017-10-10 03:49:16,0.02,0.48,0.00,19.13,22.82,26.07,14.08,46.12,1012.33,2049.99,3311.92,2994.41,3407.00,600.38,601.81,38.29,0000 0000 0000 0000 000000
2017-10-10 03:54:17,0.02,0.48,0.00,19.15,22.82,26.06,14.10,46.33,1012.24,2049.99,3311.13,2994.01,3406.66,599.56,600.90,38.34,0000 0000 0000 0000 000000
2017-10-10 03:59:19,0.01,0.48,0.00,19.13,22.82,26.05,14.09,46.23,1012.23,2049.99,3310.90,2993.90,3406.02,599.82,601.14,38.39,0000 0000 0000 0000 000000
2017-10-10 04:04:20,0.04,0.48,0.00,19.14,22.82,26.05,14.10,46.37,1012.23,2049.98,3310.12,2993.15,3405.80,599.75,601.11,38.44,0000 0000 0000 0000 000000
2017-10-10 04:09:21,0.01,0.48,0.00,19.10,22.82,26.05,14.08,46.23,1012.24,2049.98,3309.94,2993.00,3405.08,600.01,601.48,38.49,0000 0000 0000 0000 000000
2017-10-10 04:14:22,0.02,0.48,0.00,19.11,22.82,26.02,14.12,46.19,1012.26,2049.98,3309.16,2992.79,3404.97,600.08,601.43,38.54,0000 0000 0000 0000 000000
2017-10-10 04:19:24,0.03,0.48,0.00,19.12,22.82,26.04,14.12,46.21,1012.35,2049.98,3308.92,2992.08,3404.24,600.12,601.45,38.59,0000 0000 0000 0000 000000
2017-10-10 04:24:25,0.01,0.48,0.00,19.12,22.81,26.04,14.06,46.00,1012.61,2049.99,3308.12,2991.99,3404.00,599.63,601.25,38.64,0000 0000 0000 0000 000000
2017-10-10 04:29:27,0.02,0.48,0.00,19.13,22.80,26.01,14.03,46.03,1012.70,2049.99,3307.93,2991.77,3403.65,599.36,600.96,38.69,0000 0000 0000 0000 000000
2017-10-10 04:34:28,0.03,0.49,0.00,19.09,22.80,26.01,13.99,45.90,1012.70,2049.99,3307.12,2991.06,3403.02,599.80,601.46,38.74,0000 0000 0000 0000 000000
2017-10-10 04:39:29,0.00,0.49,0.00,19.13,22.80,26.02,14.04,46.08,1012.67,2049.99,3306.93,2990.96,3402.85,599.72,601.31,38.79,0000 0000 0000 0000 000000
2017-10-10 04:44:30,0.04,0.49,0.00,19.12,22.80,26.01,14.11,46.07,1012.69,2049.99,3306.14,2990.42,3402.08,600.26,601.92,38.84,0000 0000 0000 0000 000000
2017-10-10 04:49:31,0.00,0.49,0.00,19.16,22.80,25.99,14.08,46.14,1012.64,2049.99,3305.98,2990.01,3401.97,600.17,601.65,38.89,0000 0000 0000 0000 000000
2017-10-10 04:54:33,0.03,0.49,0.00,19.14,22.80,26.01,13.99,46.03,1012.69,2049.99,3305.28,2989.93,3401.31,599.47,600.98,38.94,0000 0000 0000 0000 000000
2017-10-10 04:59:34,0.02,0.49,0.00,19.14,22.80,26.01,14.12,46.17,1012.70,2049.99,3304.95,2989.26,3401.00,600.26,601.86,38.99,0000 0000 0000 0000 000000
2017-10-10 05:04:35,0.02,0.49,0.00,19.14,22.80,26.00,14.10,46.08,1012.70,2049.99,3304.20,2989.00,3400.49,600.05,601.62,39.04,0000 0000 0000 0000 000000
2017-10-10 05:09:36,0.01,0.50,0.00,19.16,22.80,26.00,14.06,45.98,1012.70,2049.99,3303.99,2988.78,3400.02,600.49,602.01,39.09,0000 0000 0000 0000 000000
2017-10-10 05:14:38,0.03,0.50,0.00,19.18,22.80,25.98,14.14,46.00,1012.63,2049.99,3303.40,2988.11,3399.78,600.67,602.13,39.15,0000 0000 0000 0000 000000
2017-10-10 05:19:39,0.01,0.50,0.00,19.15,22.81,26.01,14.10,46.17,1012.65,2049.99,3302.91,2987.98,3399.07,599.50,601.04,39.20,0000 0000 0000 0000 000000
2017-10-10 05:24:40,0.03,0.50,0.00,19.17,22.82,26.01,14.04,46.09,1012.51,2049.99,3302.13,2987.56,3398.90,600.14,601.54,39.25,0000 0000 0000 0000 000000
2017-10-10 05:29:42,0.02,0.50,0.00,19.15,22.82,26.00,14.04,46.19,1012.62,2049.99,3301.91,2987.02,3398.13,599.88,601.29,39.30,0000 0000 0000 0000 000000
2017-10-10 05:34:43,0.03,0.50,0.00,19.19,22.82,26.04,14.10,46.08,1012.70,2049.99,3301.08,2986.63,3397.78,599.85,601.51,39.35,0000 0000 0000 0000 000000
2017-10-10 05:39:44,0.02,0.50,0.00,19.20,22.82,26.03,14.10,46.15,1012.71,2049.99,3300.88,2986.05,3397.07,599.89,601.36,39.40,0000 0000 0000 0000 000000
2017-10-10 05:44:45,0.01,0.50,0.00,19.19,22.82,26.03,14.04,46.07,1012.67,2049.99,3300.10,2985.99,3396.94,600.13,601.49,39.45,0000 0000 0000 0000 000000
2017-10-10 05:49:46,0.03,0.51,0.00,19.22,22.82,26.08,14.06,46.08,1012.38,2049.99,3299.89,2985.44,3396.18,600.16,601.48,39.50,0000 0000 0000 0000 000000
2017-10-10 05:54:48,0.01,0.51,0.00,19.19,22.84,26.04,13.97,46.03,1012.32,2049.99,3299.10,2985.01,3395.98,599.59,600.92,39.55,0000 0000 0000 0000 000000
2017-10-10 05:59:49,0.01,0.51,0.00,19.23,22.84,26.04,14.06,46.08,1012.30,2049.99,3298.92,2984.89,3395.24,599.81,600.96,39.60,0000 0000 0000 0000 000000
2017-10-10 06:04:50,0.03,0.51,0.00,19.23,22.84,26.08,14.03,46.10,1012.25,2049.99,3298.12,2984.13,3394.99,600.05,601.21,39.65,0000 0000 0000 0000 000000
2017-10-10 06:09:51,0.01,0.51,0.00,19.21,22.84,26.06,14.04,46.11,1012.24,2049.98,3297.91,2984.00,3394.51,599.51,600.72,39.70,0000 0000 0000 0000 000000
2017-10-10 06:14:53,0.02,0.51,0.00,19.23,22.85,26.06,14.11,46.28,1012.24,2049.98,3297.10,2983.67,3394.02,600.08,601.19,39.75,0000 0000 0000 0000 000000
2017-10-10 06:19:54,0.01,0.51,0.00,19.20,22.85,26.08,14.04,46.05,1012.24,2049.99,3296.96,2983.07,3393.89,599.66,600.85,39.80,0000 0000 0000 0000 000000
2017-10-10 06:24:56,0.02,0.52,0.00,19.20,22.85,26.08,14.07,45.97,1012.23,2049.98,3296.18,2982.99,3393.09,599.81,600.96,39.85,0000 0000 0000 0000 000000
2017-10-10 06:29:57,0.01,0.52,0.00,19.22,22.86,26.09,14.06,46.02,1012.24,2049.99,3295.99,2982.61,3392.98,599.79,600.94,39.90,0000 0000 0000 0000 000000
2017-10-10 06:34:58,0.03,0.52,0.00,19.21,22.87,26.09,14.09,46.17,1012.24,2049.99,3295.50,2982.04,3392.50,599.91,601.07,39.95,0000 0000 0000 0000 000000
2017-10-10 06:40:00,0.00,0.52,0.00,19.24,22.87,26.08,14.16,46.24,1012.23,2049.99,3295.01,2981.98,3392.01,600.31,601.41,40.00,0000 0000 0000 0000 000000
2017-10-10 06:45:01,0.03,0.52,0.00,19.22,22.87,26.09,14.02,46.08,1012.23,2049.97,3294.34,2981.52,3391.90,599.95,601.03,40.05,0000 0000 0000 0000 000000
2017-10-10 06:50:02,0.02,0.52,0.00,19.19,22.87,26.11,14.10,46.13,1012.23,2049.98,3294.00,2981.05,3391.15,600.54,601.75,40.10,0000 0000 0000 0000 000000
2017-10-10 06:55:03,0.01,0.52,0.00,19.22,22.87,26.10,14.03,45.89,1012.23,2049.96,3293.62,2981.00,3391.00,600.03,601.17,40.16,0000 0000 0000 0000 000000
2017-10-10 07:00:05,0.02,0.52,0.00,19.21,22.87,26.11,14.05,45.99,1012.24,2049.98,3293.03,2980.63,3390.90,600.03,601.18,40.21,0000 0000 0000 0000 000000
2017-10-10 07:05:06,0.03,0.52,0.00,19.24,22.87,26.09,14.09,46.10,1012.25,2049.98,3292.58,2980.04,3390.13,599.83,600.94,40.26,0000 0000 0000 0000 000000
2017-10-10 07:10:07,0.01,0.53,0.00,19.22,22.87,26.12,14.06,46.18,1012.25,2049.97,3292.02,2979.99,3389.99,600.19,601.28,40.31,0000 0000 0000 0000 000000
2017-10-10 07:15:09,0.04,0.53,0.00,19.21,22.88,26.11,14.09,46.14,1012.28,2049.98,3291.65,2979.45,3389.28,600.07,601.27,40.36,0000 0000 0000 0000 000000
2017-10-10 07:20:10,0.01,0.53,0.00,19.22,22.88,26.13,14.14,46.17,1012.27,2049.99,3291.02,2979.01,3389.01,600.07,601.23,40.41,0000 0000 0000 0000 000000
2017-10-10 07:25:11,0.02,0.53,0.00,19.26,22.89,26.11,14.08,46.13,1012.32,2049.98,3290.71,2978.96,3388.68,600.07,601.09,40.46,0000 0000 0000 0000 000000
2017-10-10 07:30:12,0.03,0.53,0.00,19.28,22.89,26.09,14.12,46.03,1012.31,2049.98,3290.05,2978.58,3388.04,600.27,601.19,40.51,0000 0000 0000 0000 000000
2017-10-10 07:35:14,0.01,0.53,0.00,19.23,22.89,26.12,14.16,46.13,1012.35,2049.98,3289.79,2978.02,3387.97,600.48,601.66,40.56,0000 0000 0000 0000 000000
2017-10-10 07:40:15,0.02,0.53,0.00,19.26,22.89,26.11,14.12,46.06,1012.39,2049.97,3289.08,2977.96,3387.27,600.25,601.55,40.61,0000 0000 0000 0000 000000
2017-10-10 07:45:17,0.02,0.53,0.00,19.25,22.89,26.12,14.03,46.02,1012.41,2049.98,3288.96,2977.26,3387.00,600.02,601.21,40.66,0000 0000 0000 0000 000000
2017-10-10 07:50:18,0.02,0.53,0.00,19.29,22.89,26.10,14.03,45.92,1012.54,2049.97,3288.27,2977.01,3386.62,600.09,601.30,40.71,0000 0000 0000 0000 000000
2017-10-10 07:55:19,0.01,0.54,0.00,19.29,22.90,26.11,14.05,45.88,1012.46,2049.96,3287.99,2976.83,3386.02,599.90,600.97,40.76,0000 0000 0000 0000 000000
2017-10-10 08:00:20,0.02,0.54,0.00,19.27,22.91,26.13,14.08,45.96,1012.48,2049.96,3287.61,2976.15,3385.91,600.21,601.42,40.81,0000 0000 0000 0000 000000
2017-10-10 08:05:21,0.02,0.54,0.00,19.33,22.92,26.15,14.05,45.92,1012.44,2049.95,3287.02,2976.00,3385.21,599.86,601.01,40.86,0000 0000 0000 0000 000000
2017-10-10 08:10:23,0.01,0.54,0.00,19.32,22.92,26.14,14.05,45.96,1012.39,2049.92,3286.75,2975.91,3385.00,600.06,601.01,40.91,0000 0000 0000 0000 000000
2017-10-10 08:15:24,0.04,0.54,0.00,19.37,22.92,26.14,14.09,45.83,1012.36,2049.95,3286.05,2975.21,3384.60,600.36,601.26,40.96,0000 0000 0000 0000 000000
2017-10-10 08:20:25,0.01,0.54,0.00,19.36,22.94,26.13,14.10,45.88,1012.34,2049.92,3285.94,2975.00,3384.02,599.97,600.90,41.01,0000 0000 0000 0000 000000
2017-10-10 08:25:26,0.01,0.54,0.00,19.33,22.94,26.16,14.12,45.99,1012.30,2049.84,3285.18,2974.75,3383.91,599.81,600.88,41.07,0000 0000 0000 0000 000000
2017-10-10 08:30:28,0.04,0.54,0.00,19.35,22.95,26.16,14.05,45.89,1012.27,2049.81,3284.99,2974.08,3383.23,599.35,600.15,41.12,0000 0000 0000 0000 000000
2017-10-10 08:35:29,-0.02,0.54,0.00,19.38,22.96,26.16,13.98,45.88,1012.24,2049.51,3284.39,2974.00,3382.98,599.87,600.64,41.17,0000 0000 0000 0000 000000
2017-10-10 08:40:31,0.00,0.54,0.00,19.41,22.97,26.17,14.06,46.02,1012.24,2049.39,3284.00,2973.87,3382.64,599.65,600.53,41.22,0000 0000 0000 0000 000000
2017-10-10 08:45:32,0.04,0.54,0.00,19.37,22.97,26.18,14.04,45.97,1012.23,2049.45,3283.91,2973.22,3382.04,599.46,600.42,41.27,0000 0000 0000 0000 000000
2017-10-10 08:50:34,-0.02,0.55,0.00,19.38,22.99,26.19,14.03,45.99,1012.23,2049.29,3283.22,2973.01,3381.99,599.61,600.36,41.32,0000 0000 0000 0000 000000
2017-10-10 08:55:35,0.01,0.55,0.00,19.36,22.99,26.19,14.06,46.04,1012.22,2049.16,3282.99,2972.97,3381.61,599.71,600.57,41.37,0000 0000 0000 0000 000000
2017-10-10 09:00:36,0.03,0.55,0.00,19.39,23.00,26.22,14.10,46.21,1012.23,2049.08,3282.55,2972.42,3381.03,600.10,600.98,41.42,0000 0000 0000 0000 000000
2017-10-10 09:05:37,0.01,0.55,0.00,19.40,23.00,26.22,14.06,46.03,1012.23,2049.03,3282.01,2972.01,3380.98,600.24,600.95,41.47,0000 0000 0000 0000 000000
2017-10-10 09:10:38,0.02,0.55,0.00,19.37,23.02,26.22,14.04,45.92,1012.25,2049.03,3281.69,2971.96,3380.45,599.75,600.72,41.52,0000 0000 0000 0000 000000
2017-10-10 09:15:39,0.03,0.55,0.00,19.40,23.02,26.26,14.11,46.02,1012.23,2049.02,3281.04,2971.48,3380.01,600.05,600.85,41.57,0000 0000 0000 0000 000000
2017-10-10 09:20:41,0.01,0.55,0.00,19.38,23.02,26.25,14.01,45.90,1012.24,2049.03,3280.99,2971.06,3379.96,599.60,600.44,41.62,0000 0000 0000 0000 000000
2017-10-10 09:25:42,0.02,0.55,0.00,19.40,23.02,26.25,14.06,46.13,1012.29,2049.01,3280.57,2971.00,3379.40,599.71,600.54,41.67,0000 0000 0000 0000 000000
2017-10-10 09:30:43,0.01,0.55,0.00,19.41,23.03,26.24,14.07,46.04,1012.40,2049.02,3280.02,2970.93,3379.01,600.20,600.98,41.72,0000 0000 0000 0000 000000
2017-10-10 09:35:45,0.01,0.55,0.00,19.37,23.04,26.27,14.09,45.98,1012.43,2049.01,3279.99,2970.60,3379.00,600.19,601.13,41.77,0000 0000 0000 0000 000000
2017-10-10 09:40:46,0.03,0.55,0.00,19.42,23.04,26.29,14.01,46.01,1012.55,2049.01,3279.39,2970.04,3378.69,599.69,600.48,41.82,0000 0000 0000 0000 000000
2017-10-10 09:45:47,0.01,0.55,0.00,19.42,23.04,26.27,14.05,46.04,1012.57,2049.00,3279.00,2969.98,3378.04,599.72,600.74,41.87,0000 0000 0000 0000 000000
2017-10-10 09:50:48,0.00,0.56,0.00,19.44,23.04,26.25,14.08,46.00,1012.63,2049.00,3278.83,2969.91,3378.00,600.24,601.11,41.92,0000 0000 0000 0000 000000
2017-10-10 09:55:49,0.03,0.56,0.00,19.46,23.05,26.28,13.97,45.94,1012.59,2049.00,3278.12,2969.30,3377.81,599.50,600.36,41.97,0000 0000 0000 0000 000000
2017-10-10 10:00:51,0.01,0.56,0.00,19.43,23.06,26.25,14.07,45.98,1012.35,2049.00,3277.99,2969.01,3377.10,600.28,601.00,42.02,0000 0000 0000 0000 000000
2017-10-10 10:05:51,0.01,0.56,0.00,19.49,23.07,26.29,14.03,45.92,1012.26,2049.00,3277.62,2968.99,3377.00,599.65,600.25,42.07,0000 0000 0000 0000 000000
2017-10-10 10:10:53,0.02,0.56,0.00,19.47,23.07,26.27,14.04,45.89,1012.24,2049.00,3277.04,2968.75,3376.90,599.94,600.67,42.13,0000 0000 0000 0000 000000
2017-10-10 10:15:54,0.02,0.56,0.00,19.49,23.08,26.30,13.97,45.82,1012.23,2049.00,3276.99,2968.14,3376.24,599.78,600.40,42.18,0000 0000 0000 0000 000000
2017-10-10 10:20:55,0.01,0.56,0.00,19.53,23.09,26.28,14.07,46.09,1012.23,2049.00,3276.39,2968.00,3375.99,599.67,600.18,42.23,0000 0000 0000 0000 000000
2017-10-10 10:25:56,0.01,0.56,0.00,19.51,23.10,26.27,14.05,45.96,1012.22,2049.00,3276.00,2967.96,3375.84,600.20,600.76,42.28,0000 0000 0000 0000 000000
2017-10-10 10:30:58,0.02,0.56,0.00,19.54,23.11,26.30,14.07,45.89,1012.22,2049.00,3275.85,2967.58,3375.27,599.98,600.42,42.33,0000 0000 0000 0000 000000
2017-10-10 10:35:59,0.01,0.56,0.00,19.54,23.12,26.33,13.94,45.80,1012.22,2049.00,3275.11,2967.05,3375.00,599.73,600.19,42.38,0000 0000 0000 0000 000000
2017-10-10 10:41:00,0.00,0.56,0.00,19.54,23.12,26.32,14.05,46.04,1012.22,2049.00,3274.98,2966.98,3374.85,600.13,600.64,42.43,0000 0000 0000 0000 000000
2017-10-10 10:46:01,0.03,0.57,0.00,19.60,23.14,26.33,14.00,45.85,1012.22,2049.00,3274.40,2966.81,3374.12,599.92,600.19,42.48,0000 0000 0000 0000 000000
2017-10-10 10:51:02,0.01,0.57,0.00,19.56,23.14,26.36,14.09,46.02,1012.22,2048.99,3274.01,2966.12,3373.99,599.92,600.41,42.53,0000 0000 0000 0000 000000
2017-10-10 10:56:03,0.01,0.57,0.00,19.55,23.15,26.39,13.95,46.01,1012.22,2048.98,3273.79,2965.99,3373.72,599.57,600.02,42.58,0000 0000 0000 0000 000000
2017-10-10 11:01:05,0.01,0.57,0.00,19.57,23.17,26.37,14.05,46.18,1012.15,2048.97,3273.04,2965.96,3373.04,599.93,600.32,42.63,0000 0000 0000 0000 000000
2017-10-10 11:06:06,0.02,0.57,0.00,19.55,23.17,26.38,14.09,46.17,1012.11,2048.98,3272.99,2965.31,3372.99,600.23,600.62,42.68,0000 0000 0000 0000 000000
2017-10-10 11:11:07,0.02,0.57,0.00,19.56,23.18,26.43,13.99,46.09,1011.92,2048.97,3272.29,2965.00,3372.57,600.13,600.18,42.73,0000 0000 0000 0000 000000
2017-10-10 11:16:08,0.00,0.57,0.00,19.56,23.19,26.43,13.98,46.06,1011.84,2048.93,3271.98,2964.94,3372.01,599.86,600.07,42.78,0000 0000 0000 0000 000000
2017-10-10 11:21:10,0.04,0.57,0.00,19.52,23.19,26.46,14.05,46.00,1011.83,2048.94,3271.29,2964.22,3371.87,599.74,600.05,42.83,0000 0000 0000 0000 000000
2017-10-10 11:26:11,0.01,0.57,0.00,19.54,23.19,26.46,14.11,46.10,1011.79,2048.91,3270.91,2964.00,3371.07,600.16,600.32,42.88,0000 0000 0000 0000 000000
2017-10-10 11:31:12,0.03,0.58,0.00,19.54,23.20,26.45,13.99,45.96,1011.77,2048.92,3270.16,2963.88,3370.98,599.73,599.96,42.93,0000 0000 0000 0000 000000
2017-10-10 11:36:13,0.03,0.58,0.00,19.53,23.20,26.44,14.06,46.04,1011.75,2048.94,3270.00,2963.14,3370.45,599.96,600.14,42.98,0000 0000 0000 0000 000000
2017-10-10 11:41:15,0.01,0.58,0.00,19.55,23.20,26.45,14.02,45.94,1011.76,2048.97,3269.65,2963.01,3370.02,599.68,599.95,43.03,0000 0000 0000 0000 000000
2017-10-10 11:46:16,0.00,0.58,0.00,19.51,23.21,26.40,14.03,46.08,1011.77,2048.95,3269.03,2962.95,3369.97,599.78,600.11,43.09,0000 0000 0000 0000 000000
2017-10-10 11:51:18,0.03,0.58,0.00,19.50,23.22,26.40,14.02,45.92,1011.93,2048.91,3268.89,2962.38,3369.34,599.79,600.21,43.14,0000 0000 0000 0000 000000
2017-10-10 11:56:19,0.02,0.58,0.00,19.55,23.22,26.43,14.08,45.96,1012.07,2048.93,3268.12,2962.01,3369.01,599.76,600.13,43.19,0000 0000 0000 0000 000000
2017-10-10 12:01:20,0.00,0.58,0.00,19.54,23.22,26.43,14.03,46.10,1012.19,2048.95,3267.99,2961.98,3368.91,600.38,600.90,43.24,0000 0000 0000 0000 000000
2017-10-10 12:06:21,0.04,0.58,0.00,19.56,23.22,26.40,14.06,46.02,1012.22,2048.93,3267.32,2961.62,3368.21,599.85,600.15,43.29,0000 0000 0000 0000 000000
2017-10-10 12:11:23,0.01,0.58,0.00,19.54,23.22,26.43,14.06,45.88,1012.22,2048.92,3267.00,2961.05,3368.00,599.79,600.22,43.34,0000 0000 0000 0000 000000
2017-10-10 12:16:24,0.01,0.59,0.00,19.55,23.22,26.42,14.05,45.89,1012.22,2048.95,3266.52,2961.00,3367.96,600.03,600.47,43.39,0000 0000 0000 0000 000000
2017-10-10 12:21:25,0.02,0.59,0.00,19.59,23.22,26.43,14.05,45.83,1012.22,2048.96,3266.01,2960.81,3367.20,600.15,600.49,43.44,0000 0000 0000 0000 000000
2017-10-10 12:26:27,0.03,0.59,0.00,19.56,23.22,26.44,14.03,45.91,1012.22,2048.97,3265.33,2960.14,3367.00,599.79,600.21,43.49,0000 0000 0000 0000 000000
2017-10-10 12:31:28,0.00,0.59,0.00,19.62,23.22,26.43,14.03,45.92,1012.22,2048.97,3265.02,2960.01,3366.84,599.52,599.85,43.54,0000 0000 0000 0000 000000
2017-10-10 12:36:29,0.01,0.59,0.00,19.61,23.23,26.41,14.03,45.83,1012.22,2048.97,3264.89,2959.96,3366.08,599.94,600.25,43.59,0000 0000 0000 0000 000000
2017-10-10 12:41:30,0.03,0.59,0.00,19.60,23.24,26.44,14.01,46.02,1012.22,2048.98,3264.11,2959.38,3366.00,599.66,600.07,43.64,0000 0000 0000 0000 000000
2017-10-10 12:46:32,0.01,0.59,0.00,19.64,23.24,26.45,14.06,45.73,1012.22,2048.97,3264.00,2959.01,3365.72,600.18,600.50,43.69,0000 0000 0000 0000 000000
2017-10-10 12:51:33,0.01,0.59,0.00,19.62,23.25,26.45,14.06,45.85,1012.22,2048.97,3263.71,2959.00,3365.05,599.93,600.18,43.74,0000 0000 0000 0000 000000
2017-10-10 12:56:34,0.02,0.59,0.00,19.69,23.26,26.47,14.08,45.97,1012.22,2048.96,3263.03,2958.46,3364.94,599.92,600.11,43.79,0000 0000 0000 0000 000000